Location: Clarks Summit,Pa.
(41.5000°N, 75.6000°W)
Time: 09:28:03
(UTC-05:00)

BlueWalker 3 - Pass Details

Date: 05 December 2022
Orbit: 499 x 517 km, 53.2° (Epoch: 01 February)

Event Time Altitude Azimuth Distance (km) Brightness Sun altitude
Rises 18:06:34 0° 311° (NW) 2,627 6.1 -17.1°
Reaches altitude 10° 18:09:13 10° 328° (NNW) 1,734 4.9 -17.5°
Enters shadow 18:11:57 20° 12° (NNE) 1,212 3.6 -18.0°
